When you browse on this site, cookies collect data to enhance your experience and personalize the content and advertising you see.
Visit our Privacy Policy to learn more. By continuing to use the site, you agree to this use of cookies and data.
  • In Austria
  • List of Countries
  • For 7 days
  • Water Temperature
  • Weather Map
  • News
  • Weather Widgets
  • user-avatar
    Login

    Hourly Weather Kranevo

    Today, 28 February, Friday

    Time Temperature Precipitation Wind Pressure Humidity
    00:00 +2°C° 0.1 mm 8 mps 750 mmHg 79%
    01:00 +3°C° 0.1 mm 7 mps 751 mmHg 82%
    02:00 +3°C° 0 mm 7 mps 751 mmHg 86%
    03:00 +2°C° 0 mm 6 mps 752 mmHg 87%
    04:00 +2°C° 0 mm 5 mps 752 mmHg 87%
    05:00 +1°C° 0 mm 4 mps 752 mmHg 87%
    06:00 +1°C° 0 mm 4 mps 753 mmHg 83%
    07:00 +3°C° 0 mm 4 mps 753 mmHg 79%
    08:00 +3°C° 0 mm 4 mps 754 mmHg 75%
    09:00 +4°C° 0 mm 4 mps 754 mmHg 68%
    10:00 +6°C° 0 mm 4 mps 754 mmHg 60%
    11:00 +7°C° 0 mm 4 mps 754 mmHg 53%
    12:00 +7°C° 0 mm 4 mps 753 mmHg 52%
    13:00 +8°C° 0 mm 5 mps 752 mmHg 51%
    14:00 +8°C° 0 mm 5 mps 752 mmHg 50%
    15:00 +7°C° 0 mm 5 mps 751 mmHg 56%
    16:00 +7°C° 0 mm 5 mps 751 mmHg 62%
    17:00 +6°C° 0 mm 5 mps 751 mmHg 68%
    18:00 +6°C° 0 mm 5 mps 751 mmHg 73%
    19:00 +5°C° 0 mm 4 mps 751 mmHg 78%
    20:00 +5°C° 0 mm 3 mps 751 mmHg 83%
    21:00 +5°C° 0.9 mm 3 mps 751 mmHg 86%
    22:00 +6°C° 0.9 mm 2 mps 752 mmHg 89%
    23:00 +6°C° 0.9 mm 2 mps 752 mmHg 92%

    Tomorrow, 29 February, Saturday

    Time Temperature Precipitation Wind Pressure Humidity
    00:00 +5°C° 0.7 mm 3 mps 752 mmHg 91%
    01:00 +4°C° 0.7 mm 4 mps 752 mmHg 90%
    02:00 +3°C° 0.7 mm 6 mps 752 mmHg 89%
    03:00 +3°C° 0.2 mm 6 mps 752 mmHg 89%
    04:00 +3°C° 0.2 mm 6 mps 752 mmHg 89%
    05:00 +3°C° 0.2 mm 6 mps 753 mmHg 90%
    06:00 +3°C° 0.2 mm 6 mps 753 mmHg 89%
    07:00 +3°C° 0.2 mm 6 mps 754 mmHg 89%
    08:00 +3°C° 0.2 mm 7 mps 755 mmHg 88%
    09:00 +4°C° 0.1 mm 7 mps 755 mmHg 83%
    10:00 +5°C° 0.1 mm 7 mps 756 mmHg 78%
    11:00 +5°C° 0.1 mm 7 mps 757 mmHg 73%
    12:00 +7°C° 0 mm 6 mps 757 mmHg 69%
    13:00 +7°C° 0 mm 5 mps 757 mmHg 66%
    14:00 +8°C° 0 mm 5 mps 758 mmHg 62%
    15:00 +7°C° 0.1 mm 4 mps 758 mmHg 64%
    16:00 +7°C° 0.1 mm 4 mps 758 mmHg 66%
    17:00 +8°C° 0.1 mm 3 mps 759 mmHg 67%
    18:00 +7°C° 0 mm 3 mps 759 mmHg 72%
    19:00 +6°C° 0 mm 2 mps 760 mmHg 76%
    20:00 +6°C° 0 mm 1 mps 760 mmHg 80%
    21:00 +6°C° 0 mm 1 mps 760 mmHg 81%
    22:00 +5°C° 0 mm 1 mps 760 mmHg 81%
    23:00 +5°C° 0 mm 1 mps 761 mmHg 81%

    Day after tomorrow, 1 March, Sunday

    Time Temperature Precipitation Wind Pressure Humidity
    00:00 +5°C° 0 mm 1 mps 760 mmHg 81%
    01:00 +5°C° 0 mm 1 mps 760 mmHg 82%
    02:00 +5°C° 0 mm 1 mps 760 mmHg 82%
    03:00 +4°C° 0 mm 2 mps 760 mmHg 84%
    04:00 +3°C° 0 mm 2 mps 760 mmHg 85%
    05:00 +3°C° 0 mm 2 mps 760 mmHg 87%
    06:00 +3°C° 0 mm 3 mps 760 mmHg 86%
    07:00 +3°C° 0 mm 4 mps 760 mmHg 85%
    08:00 +4°C° 0 mm 4 mps 760 mmHg 85%
    09:00 +5°C° 0 mm 5 mps 760 mmHg 79%
    10:00 +6°C° 0 mm 5 mps 760 mmHg 73%
    11:00 +7°C° 0 mm 6 mps 760 mmHg 67%
    12:00 +7°C° 0 mm 6 mps 760 mmHg 65%
    13:00 +8°C° 0 mm 6 mps 760 mmHg 64%
    14:00 +8°C° 0 mm 7 mps 759 mmHg 63%
    15:00 +6°C° 0 mm 7 mps 759 mmHg 66%
    16:00 +7°C° 0 mm 6 mps 758 mmHg 68%
    17:00 +7°C° 0 mm 6 mps 758 mmHg 71%
    18:00 +5°C° 0 mm 6 mps 758 mmHg 75%
    19:00 +4°C° 0 mm 6 mps 758 mmHg 80%
    20:00 +4°C° 0 mm 6 mps 759 mmHg 85%
    21:00 +4°C° 0 mm 6 mps 758 mmHg 86%
    22:00 +4°C° 0 mm 6 mps 758 mmHg 88%
    23:00 +4°C° 0 mm 6 mps 758 mmHg 89%

    2 March, Monday

    Time Temperature Precipitation Wind Pressure Humidity
    00:00 +4°C° 0 mm 6 mps 757 mmHg 89%
    01:00 +3°C° 0 mm 5 mps 757 mmHg 90%
    02:00 +3°C° 0 mm 5 mps 757 mmHg 90%
    03:00 +3°C° 0 mm 5 mps 756 mmHg 91%
    04:00 +3°C° 0 mm 5 mps 756 mmHg 92%
    05:00 +3°C° 0 mm 5 mps 756 mmHg 92%
    06:00 +5°C° 0 mm 5 mps 755 mmHg 89%
    07:00 +4°C° 0 mm 6 mps 755 mmHg 85%
    08:00 +4°C° 0 mm 6 mps 755 mmHg 81%
    09:00 +5°C° 0 mm 6 mps 754 mmHg 77%
    10:00 +8°C° 0 mm 7 mps 754 mmHg 72%
    11:00 +9°C° 0 mm 8 mps 753 mmHg 67%
    12:00 +10°C° 0 mm 7 mps 753 mmHg 65%
    13:00 +11°C° 0 mm 7 mps 752 mmHg 64%
    14:00 +12°C° 0 mm 7 mps 752 mmHg 63%
    15:00 +13°C° 0 mm 6 mps 751 mmHg 64%
    16:00 +13°C° 0 mm 5 mps 751 mmHg 65%
    17:00 +13°C° 0 mm 4 mps 751 mmHg 66%
    18:00 +12°C° 0 mm 4 mps 751 mmHg 70%
    19:00 +12°C° 0 mm 4 mps 752 mmHg 75%
    20:00 +11°C° 0 mm 4 mps 752 mmHg 79%
    21:00 +10°C° 0 mm 4 mps 752 mmHg 80%
    22:00 +10°C° 0 mm 3 mps 753 mmHg 81%
    23:00 +10°C° 0 mm 3 mps 753 mmHg 82%

    3 March, Tuesday

    Time Temperature Precipitation Wind Pressure Humidity
    00:00 +10°C° 0 mm 3 mps 753 mmHg 82%
    01:00 +10°C° 0 mm 3 mps 753 mmHg 81%
    02:00 +10°C° 0 mm 3 mps 753 mmHg 80%
    03:00 +10°C° 0 mm 3 mps 753 mmHg 80%
    04:00 +10°C° 0 mm 3 mps 753 mmHg 79%
    05:00 +10°C° 0 mm 3 mps 753 mmHg 79%
    06:00 +10°C° 0 mm 4 mps 753 mmHg 81%
    07:00 +10°C° 0 mm 4 mps 753 mmHg 83%
    08:00 +9°C° 0 mm 5 mps 753 mmHg 86%
    09:00 +10°C° 0 mm 6 mps 753 mmHg 82%
    10:00 +12°C° 0 mm 7 mps 753 mmHg 79%
    11:00 +13°C° 0 mm 8 mps 753 mmHg 76%
    12:00 +15°C° 0 mm 8 mps 753 mmHg 73%
    13:00 +15°C° 0 mm 8 mps 753 mmHg 70%
    14:00 +16°C° 0 mm 7 mps 753 mmHg 67%
    15:00 +15°C° 0 mm 7 mps 752 mmHg 68%
    16:00 +15°C° 0 mm 6 mps 752 mmHg 68%
    17:00 +15°C° 0 mm 6 mps 752 mmHg 69%
    18:00 +14°C° 0 mm 6 mps 752 mmHg 70%
    19:00 +14°C° 0 mm 6 mps 752 mmHg 71%
    20:00 +13°C° 0 mm 6 mps 752 mmHg 71%
    21:00 +13°C° 0 mm 5 mps 753 mmHg 72%
    22:00 +13°C° 0 mm 5 mps 753 mmHg 73%
    23:00 +13°C° 0 mm 5 mps 753 mmHg 74%

    4 March, Wednesday

    Time Temperature Precipitation Wind Pressure Humidity
    00:00 +12°C° 0 mm 5 mps 753 mmHg 76%
    01:00 +12°C° 0 mm 4 mps 752 mmHg 79%
    02:00 +12°C° 0 mm 4 mps 752 mmHg 81%
    03:00 +11°C° 0 mm 4 mps 752 mmHg 81%
    04:00 +11°C° 0 mm 4 mps 751 mmHg 82%
    05:00 +11°C° 0 mm 4 mps 751 mmHg 82%
    06:00 +11°C° 0 mm 4 mps 751 mmHg 80%
    07:00 +11°C° 0 mm 4 mps 751 mmHg 77%
    08:00 +11°C° 0 mm 3 mps 751 mmHg 74%
    09:00 +12°C° 0 mm 3 mps 751 mmHg 68%
    10:00 +14°C° 0 mm 3 mps 751 mmHg 62%
    11:00 +16°C° 0 mm 3 mps 750 mmHg 57%
    12:00 +16°C° 0 mm 3 mps 750 mmHg 56%
    13:00 +17°C° 0 mm 3 mps 750 mmHg 54%
    14:00 +17°C° 0 mm 3 mps 749 mmHg 53%
    15:00 +16°C° 0 mm 3 mps 749 mmHg 56%
    16:00 +16°C° 0 mm 3 mps 748 mmHg 60%
    17:00 +14°C° 0 mm 3 mps 748 mmHg 63%
    18:00 +13°C° 0 mm 3 mps 748 mmHg 65%
    19:00 +12°C° 0 mm 3 mps 748 mmHg 68%
    20:00 +12°C° 0 mm 2 mps 748 mmHg 71%
    21:00 +11°C° 0 mm 3 mps 747 mmHg 70%
    22:00 +11°C° 0 mm 3 mps 747 mmHg 70%
    23:00 +10°C° 0 mm 3 mps 747 mmHg 70%
    Show more